| time (UTC) | temp C | wind direction | speed KPH | gust KPH | rain 1hr cm | rain 24hr cm | rain mn cm | humidity % | barometer mb |
| 20260506200031 | 33 | 90 | 3.2 | 14.5 | 0.00 | 0.00 | 0.00 | 43 | 1013.6 |
| 20260506194530 | 33 | 169 | 3.2 | 12.9 | 0.00 | 0.00 | 0.00 | 44 | 1013.8 |
| 20260506193030 | 33 | 238 | 4.8 | 11.3 | 0.00 | 0.00 | 0.00 | 44 | 1014.1 |
| 20260506191530 | 32 | 0 | 0.0 | 16.1 | 0.00 | 0.00 | 0.00 | 45 | 1014.4 |
| 20260506190032 | 32 | 213 | 1.6 | 14.5 | 0.00 | 0.00 | 0.00 | 46 | 1014.6 |
| 20260506184535 | 32 | 289 | 4.8 | 17.7 | 0.00 | 0.00 | 0.00 | 44 | 1014.9 |
| 20260506183032 | 32 | 109 | 4.8 | 11.3 | 0.00 | 0.00 | 0.00 | 47 | 1014.9 |
| 20260506181530 | 32 | 236 | 6.4 | 14.5 | 0.00 | 0.00 | 0.00 | 47 | 1015.2 |
| 20260506180033 | 31 | 0 | 1.6 | 16.1 | 0.00 | 0.00 | 0.00 | 48 | 1015.4 |
| 20260506174534 | 31 | 252 | 3.2 | 14.5 | 0.00 | 0.00 | 0.00 | 49 | 1015.7 |
| 20260506173143 | 31 | 249 | 4.8 | 16.1 | 0.00 | 0.00 | 0.00 | 50 | 1016.1 |
| 20260506171539 | 30 | 308 | 4.8 | 12.9 | 0.00 | 0.00 | 0.00 | 51 | 1016.2 |
| 20260506170124 | 30 | 170 | 4.8 | 16.1 | 0.00 | 0.00 | 0.00 | 53 | 1016.2 |
| 20260506164532 | 30 | 200 | 6.4 | 16.1 | 0.00 | 0.00 | 0.00 | 51 | 1016.6 |
| 20260506163034 | 30 | 0 | 4.8 | 16.1 | 0.00 | 0.00 | 0.00 | 53 | 1016.7 |
| 20260506161531 | 30 | 227 | 3.2 | 11.3 | 0.00 | 0.00 | 0.00 | 54 | 1017.0 |
| 20260506160031 | 28 | 321 | 6.4 | 16.1 | 0.00 | 0.00 | 0.00 | 56 | 1016.9 |
| 20260506154533 | 28 | 164 | 4.8 | 14.5 | 0.00 | 0.00 | 0.00 | 57 | 1016.7 |
| 20260506153031 | 28 | 221 | 4.8 | 16.1 | 0.00 | 0.00 | 0.00 | 56 | 1017.0 |
| 20260506151538 | 27 | 297 | 6.4 | 12.9 | 0.00 | 0.00 | 0.00 | 60 | 1017.0 |
| 20260506150030 | 27 | 184 | 4.8 | 12.9 | 0.00 | 0.00 | 0.00 | 61 | 1016.8 |
| 20260506144531 | 26 | 0 | 1.6 | 14.5 | 0.00 | 0.00 | 0.00 | 64 | 1016.7 |
| 20260506143034 | 25 | 189 | 4.8 | 12.9 | 0.00 | 0.00 | 0.00 | 66 | 1016.5 |
| 20260506141529 | 25 | 232 | 4.8 | 17.7 | 0.00 | 0.00 | 0.00 | 67 | 1016.5 |
| 20260506140035 | 24 | 225 | 4.8 | 14.5 | 0.00 | 0.00 | 0.00 | 70 | 1016.8 |
| 20260506134531 | 23 | 0 | 1.6 | 17.7 | 0.00 | 0.00 | 0.00 | 71 | 1016.5 |
| 20260506133032 | 22 | 236 | 4.8 | 12.9 | 0.00 | 0.00 | 0.00 | 72 | 1016.5 |
| 20260506131532 | 21 | 211 | 3.2 | 9.7 | 0.00 | 0.00 | 0.00 | 74 | 1016.3 |
| 20260506130034 | 21 | 0 | 1.6 | 9.7 | 0.00 | 0.00 | 0.00 | 77 | 1016.2 |
| 20260506124534 | 19 | 215 | 1.6 | 8.0 | 0.00 | 0.00 | 0.00 | 80 | 1016.5 |
| 20260506123029 | 17 | 266 | 1.6 | 11.3 | 0.00 | 0.00 | 0.00 | 86 | 1016.2 |
| 20260506121532 | 16 | 0 | 0.0 | 0.0 | 0.00 | 0.00 | 0.00 | 91 | 1016.1 |
| 20260506120030 | 15 | 0 | 0.0 | 0.0 | 0.00 | 0.00 | 0.00 | 92 | 1016.1 |
| 20260506114537 | 15 | 0 | 0.0 | 0.0 | 0.00 | 0.00 | 0.00 | 91 | 1015.8 |
| 20260506113032 | 14 | 0 | 0.0 | 0.0 | 0.00 | 0.00 | 0.00 | 91 | 1015.7 |
| 20260506111529 | 13 | 0 | 0.0 | 0.0 | 0.00 | 0.00 | 0.00 | 90 | 1015.4 |
| 20260506110034 | 13 | 0 | 0.0 | 0.0 | 0.00 | 0.00 | 0.00 | 89 | 1015.4 |
| 20260506104537 | 14 | 0 | 0.0 | 0.0 | 0.00 | 0.00 | 0.00 | 88 | 1015.4 |
| 20260506103032 | 14 | 0 | 0.0 | 0.0 | 0.00 | 0.00 | 0.00 | 88 | 1015.2 |
| 20260506101530 | 14 | 0 | 0.0 | 0.0 | 0.00 | 0.00 | 0.00 | 88 | 1014.9 |
| 20260506100031 | 15 | 0 | 0.0 | 0.0 | 0.00 | 0.00 | 0.00 | 88 | 1015.2 |
| 20260506094532 | 15 | 0 | 0.0 | 0.0 | 0.00 | 0.00 | 0.00 | 87 | 1015.3 |
| 20260506093032 | 15 | 0 | 0.0 | 0.0 | 0.00 | 0.00 | 0.00 | 87 | 1015.3 |
| 20260506091531 | 15 | 0 | 0.0 | 0.0 | 0.00 | 0.00 | 0.00 | 86 | 1015.1 |
| 20260506090031 | 15 | 0 | 0.0 | 0.0 | 0.00 | 0.00 | 0.00 | 85 | 1015.1 |
| 20260506084534 | 16 | 0 | 0.0 | 0.0 | 0.00 | 0.00 | 0.00 | 85 | 1015.2 |
| 20260506083031 | 16 | 0 | 0.0 | 0.0 | 0.00 | 0.00 | 0.00 | 83 | 1015.2 |
| 20260506081534 | 16 | 0 | 0.0 | 0.0 | 0.00 | 0.00 | 0.00 | 82 | 1015.3 |
| 20260506073030 | 17 | 0 | 0.0 | 3.2 | 0.00 | 0.00 | 0.00 | 80 | 1015.2 |
| 20260506071532 | 17 | 200 | 0.0 | 1.6 | 0.00 | 0.00 | 0.00 | 79 | 1015.0 |
| 20260506061530 | 17 | 0 | 0.0 | 4.8 | 0.00 | 0.00 | 0.00 | 80 | 1015.2 |
| 20260506044536 | 16 | 0 | 0.0 | 1.6 | 0.00 | 0.00 | 0.00 | 85 | 1016.0 |
| 20260506043032 | 16 | 0 | 0.0 | 0.0 | 0.00 | 0.00 | 0.00 | 84 | 1016.1 |
| 20260506041530 | 16 | 0 | 0.0 | 0.0 | 0.00 | 0.00 | 0.00 | 83 | 1016.1 |
| 20260506040032 | 17 | 0 | 0.0 | 0.0 | 0.00 | 0.00 | 0.00 | 82 | 1016.1 |
| 20260506034532 | 17 | 0 | 0.0 | 0.0 | 0.00 | 0.00 | 0.00 | 81 | 1016.2 |
| 20260506033036 | 17 | 0 | 0.0 | 0.0 | 0.00 | 0.00 | 0.00 | 80 | 1016.2 |
| 20260506031535 | 18 | 0 | 0.0 | 0.0 | 0.00 | 0.00 | 0.00 | 79 | 1016.2 |
| 20260506030051 | 18 | 0 | 0.0 | 0.0 | 0.00 | 0.00 | 0.00 | 77 | 1016.3 |
| 20260506024539 | 18 | 0 | 0.0 | 0.0 | 0.00 | 0.00 | 0.00 | 75 | 1016.4 |
| 20260506023033 | 19 | 0 | 0.0 | 0.0 | 0.00 | 0.00 | 0.00 | 74 | 1016.2 |
| 20260506021531 | 20 | 0 | 0.0 | 0.0 | 0.00 | 0.00 | 0.00 | 70 | 1016.0 |
| 20260506020028 | 20 | 0 | 0.0 | 0.0 | 0.00 | 0.00 | 0.00 | 69 | 1015.9 |
| 20260506014530 | 21 | 0 | 0.0 | 0.0 | 0.00 | 0.00 | 0.00 | 67 | 1015.5 |
| 20260506013031 | 21 | 0 | 0.0 | 0.0 | 0.00 | 0.00 | 0.00 | 66 | 1015.3 |
| 20260506011537 | 21 | 98 | 0.0 | 6.4 | 0.00 | 0.00 | 0.00 | 64 | 1015.0 |
| 20260506010027 | 22 | 0 | 1.6 | 6.4 | 0.00 | 0.00 | 0.00 | 62 | 1014.9 |
| 20260506004543 | 22 | 0 | 1.6 | 9.7 | 0.00 | 0.00 | 0.00 | 61 | 1015.0 |
| 20260506003036 | 22 | 95 | 1.6 | 8.0 | 0.00 | 0.00 | 0.00 | 58 | 1014.8 |
| 20260506001531 | 23 | 87 | 0.0 | 12.9 | 0.00 | 0.00 | 0.00 | 56 | 1014.5 |
| 20260506000028 | 23 | 81 | 3.2 | 11.3 | 0.00 | 0.00 | 0.00 | 54 | 1014.4 |
| 20260505234533 | 25 | 67 | 0.0 | 11.3 | 0.00 | 0.00 | 0.00 | 54 | 1014.3 |
| 20260505233028 | 25 | 0 | 1.6 | 11.3 | 0.00 | 0.00 | 0.00 | 52 | 1014.3 |
| 20260505231530 | 26 | 0 | 0.0 | 9.7 | 0.00 | 0.00 | 0.00 | 51 | 1014.3 |
| 20260505230040 | 26 | 104 | 3.2 | 17.7 | 0.00 | 0.00 | 0.00 | 49 | 1014.3 |
| 20260505224536 | 26 | 77 | 3.2 | 8.0 | 0.00 | 0.00 | 0.00 | 50 | 1014.0 |
| 20260505223035 | 27 | 119 | 3.2 | 12.9 | 0.00 | 0.00 | 0.00 | 47 | 1013.9 |
| 20260505221532 | 28 | 87 | 1.6 | 17.7 | 0.00 | 0.00 | 0.00 | 46 | 1013.7 |
| 20260505220035 | 30 | 63 | 1.6 | 9.7 | 0.00 | 0.00 | 0.00 | 42 | 1013.6 |
| 20260505214535 | 30 | 0 | 0.0 | 9.7 | 0.00 | 0.00 | 0.00 | 36 | 1013.7 |
| 20260505213035 | 30 | 0 | 1.6 | 8.0 | 0.00 | 0.00 | 0.00 | 37 | 1013.6 |
| 20260505211534 | 30 | 0 | 3.2 | 6.4 | 0.00 | 0.00 | 0.00 | 38 | 1014.0 |
| 20260505210029 | 30 | 0 | 1.6 | 9.7 | 0.00 | 0.00 | 0.00 | 38 | 1013.9 |
| 20260505204533 | 28 | 0 | 0.0 | 8.0 | 0.00 | 0.00 | 0.00 | 41 | 1014.0 |
| 20260505203033 | 28 | 209 | 1.6 | 12.9 | 0.00 | 0.00 | 0.00 | 45 | 1014.1 |
| 20260505201535 | 28 | 0 | 0.0 | 6.4 | 0.00 | 0.00 | 0.00 | 44 | 1014.3 |